Flag for Germany Weather past 2 weeks in Laatzen, Lower Saxony, Germany

Now
50 °F

Sprinkles. Low clouds.


Feels Like: 46 °F
Forecast: 42 / 58 °F
Wind: 8 mph from Northwest

Location: Hannover

Current Time: May 26, 2015 at 4:21:22 PM

Latest Report: May 26, 2015 at 4:00 PM


Visibility: 5 mi

Pressure: 30.09 "Hg

Humidity: 86%

Dew point: 46 °F

Location of LaatzenLocation

Historic Weather in Laatzen — Graph

°F

Laatzen temperature yesterday

Maximum temperature yesterday: 59 °F (at 5:00 PM)
Minimum temperature yesterday: 45 °F (at 4:00 AM)
Average temperature yesterday: 52 °F

Past Weeks' High & Low Weather Summary

 TemperatureHumidityPressure
High76 °F (May 12, 1:00 PM)99% (May 15, 4:00 AM)30.32 "Hg (May 15, 4:00 AM)
Low34 °F (May 15, 5:00 AM)41% (May 11, 6:00 PM)29.60 "Hg (May 18, 9:00 PM)
Average54 °F68%30.04 "Hg
* Reported May 11 3:00 PM — May 26 3:00 PM, Laatzen, Weather by CustomWeather, © 2015

Note: Actual official high and low records may vary slightly from our data, if they occured in-between our weather recording intervals... More about our weather records

Advertising

Laatzen weather history for previous 24 hours

 ConditionsComfort  
Time TempWeatherWind HumidityBarometerVisibility
3:00 PM
Tue, May 26
53 °FPartly sunny.5 mph69%30.09 "Hg22 mi
2:00 PM55 °FOvercast.6 mph61%30.07 "Hg22 mi
1:00 PM55 °FOvercast.7 mph56%30.06 "Hg22 mi
12:00 PM56 °FOvercast.7 mph57%30.06 "Hg22 mi
10:00 AM52 °FPartly sunny.6 mph64%30.06 "Hg22 mi
9:00 AM52 °FScattered clouds.5 mph71%30.05 "Hg19 mi
8:00 AM49 °FOvercast.6 mph83%30.03 "Hg16 mi
7:00 AM47 °FOvercast.3 mph87%30.03 "Hg19 mi
4:00 AM48 °FPassing clouds.3 mph86%29.99 "Hg19 mi
3:00 AM48 °FOvercast.2 mph82%29.99 "Hg19 mi
2:00 AM48 °FOvercast.2 mph74%29.98 "Hg31 mi
1:00 AM49 °FOvercast.2 mph69%29.98 "Hg31 mi
12:00 AM49 °FOvercast.2 mph65%29.98 "Hg31 mi
10:00 PM
Mon, May 25
50 °FPassing clouds.3 mph65%29.97 "Hg31 mi
9:00 PM51 °FScattered clouds.3 mph63%29.96 "Hg31 mi
8:00 PM55 °FScattered clouds.3 mph57%29.94 "Hg31 mi
7:00 PM56 °FPartly sunny.6 mph55%29.94 "Hg19 mi
6:00 PM57 °FOvercast.6 mph57%29.94 "Hg19 mi
5:00 PM59 °FPartly sunny.6 mph62%29.93 "Hg19 mi
4:00 PM58 °FOvercast.6 mph69%29.93 "Hg19 mi
Weather by CustomWeather, © 2015

See weather overviewHow to use our weather pages